FLOCK 1C-11 (40033 NORAD) Tracking and Keplerian Element Data

This shows tracking and keplerian element data for the satellite.

Feedback or suggestion? Click here.




ElementValue
Catalog40033
NameFLOCK 1C-11
Epoch Orbit31723
Epoch Day114.85907843
Epoch Year2020
RAAN47.7793
Inclination97.9516
Eccentricity0.0013604
Argument of Perigee98.2371
Mean Anonmoly262.039
Mean Motion14.91079715
Decay Rate2.2E-06
L11 40033U 14033Z 20114.85907843 .00000220 00000-0 28035-4 0 9999
L22 40033 97.9516 47.7793 0013604 98.2371 262.0390 14.91079715317232



Live tracking and technical data element details for FLOCK 1C-11 (NORAD 40033). FLOCK 1C-11 can be tracked NOW for your location showing map with azimuth and elevation plus other details from your city location.







IsCatalogInMostPopularTable: catalog: 40033, numindb: 385
Update: records affected: 1



GetName: 40033 FLOCK 1C-11

Hit Count: updated at: Thu, 15 May 2025 19:10:38 GMT